Find EUTELSAT 36D

NORAD ID: 59346 Int'l Des: 2024-059 Owner: EUTSA Country: F operational
HEOCIRCULARGSOGEO

当前视图

正在加载3D地球...

About EUTELSAT 36D

EUTELSAT 36D (NORAD 59346) is a satellite launched Mar 30, 2024 by EUTSA of F. It operates in HEO, CIRCULAR, GSO, GEO orbit with a mass of 5000.00 kg.

即将过境

Passes for default location (London). Set your location on the main map for personalized predictions.

高度历史

Loading altitude history...

两行轨道根数

1 59346U 24059A 26194.86294845 .00000000 00000-0 00000+0 0 9994
2 59346 0.0269 59.3355 0000218 197.4188 21.5281 1.00269803 8416
Epoch: Jul 13, 2026 • Age: 9 hours

当前状态

高度 35787.4 km
远地点 / 近地点 N/A
速度 3.07 km/s
星下点 -0.00°S, 35.89°E
发射日期 Mar 30, 2024
运行时间 2.2 years
类型 other

技术详情

分类 Payload
质量 5000.00 kg
干质量 5000.00 kg
总质量 5000.00 kg
长度 8.00 m
直径 3.00 m
跨度 40.00 m
形状 Box + 2 Pan
制造商 ADST/ADSUK
平台类型 Eurostar NEO
阶段状态 In Orbit
所有者/国家 EUTSA/F

Most Searched